Location: *
(47.6569°N, 7.4256°E)
Time: 18:23:15
(UTC+00:00)

CZ-4 R/B - Pass Details

Date: 14 December 2019
Orbit: 533 x 598 km, 97.7° (Epoch: 21 January)

Event Time Altitude Azimuth Distance (km) Brightness Sun altitude
Rises 17:07:45 0° 145° (SE) 2,693 4.7 -14.2°
Reaches altitude 10° 17:09:59 10° 137° (SE) 1,798 3.7 -14.5°
Maximum altitude 17:13:33 36° 70° (ENE) 857 1.7 -15.1°
Drops below altitude 10° 17:17:07 10° 2° (N) 1,798 3.7 -15.7°
Sets 17:19:20 0° 354° (N) 2,692 4.7 -16.0°
